SL-8 R/B, 1575

Orbit data source: Space-Track

SL-8 R/B, 1575 is space debris in LEO originally from a launch on Fri, 03 Sep 1965 UTC launched from the Tyuratam Missile And Space Complex (TTMTR). Debris objects in space refer to the collection of defunct objects orbiting the Earth. Examples of debris include non-operational satellites, rocket bodies, and fragments generated from explosions, collisions, or faulty payload assembly.

Loading next visibility...
Identifier
1575, 1965-070F
Orbit
LEO
Last TLE update
6 hours ago
Origin
Manufacturer
Yuzhnoe
Mission
Spacecraft
Bus & Motor
S3, Unknown motor
Mass
1,434 kg wet, 1,434 kg dry
Launch date (UTC)
1965-09-03 (60 years ago)
Launch vehicle
Unknown
Launch site
Tyuratam Missile And Space Complex (TTMTR)
Object type
Payload
Rocket body
Debris
Shape & HBR
Cyl, 6.57 m
Radar Cross Section
14.646 m², Large (>1 m²)

Expand to show TLE details & history

TLE from 6 hours ago
0 SL-8 R/B
1 01575U 65070F   25128.94667013 -.00000142  00000-0 -26595-3 0  9999
2 01575  56.1221 135.0803 0097152 253.9225 136.8320 12.57010174739931
Epoch: 2025-05-08T22:43Z
Definitive object data (Epoch: 2025-05-08T22:43:12.299Z)
Latitude
25.77475°
Longitude
-53.90913°
Altitude
1,492.335 km
Speed
7.095 km/s
True Right ascension
10h 15m 36s
True Declination
25° 39' 10"
Sunlit
Object was in daylight at TLE epoch
Visualization TLE readout
Latitude
18.1552°
Longitude
93.88523°
Altitude
1,443.446 km
Speed
7.139 km/s
Apparent Right ascension
22h 04m 07s
Apparent Declination
-9° 34' 39"
Sunlit
Object is in daylight
Visualization observer readout
Local Sidereal Time
13:16:13
Azimuth
68.043° E
Elevation
-37.775°
Doppler factor
1
Orbital elements
Apogee altitude
1,511.031 km
Perigee altitude
1,359.216 km
Semi-major axis
7,813.26 km
Eccentricity
0.0097152
Inclination
56.1221°
RAAN
135.0803°
Arg. of periapsis
253.9225°
True anomaly
137.58693°
Mean anomaly
136.832°
Eccentric anomaly
137.21013°
Mean motion
3.14264 °/min
BSTAR
-0.00026595
Orbital period
114.55 mins
Loading maneuver chart data...
Loading SW <> Apogee altitude chart data...
Loading historical data...
Loading historical data...
Loading historical data...
Loading historical data...
Loading historical data...
Loading historical data...
Loading historical data...
Other satellites on launch #70 in the year 1965 (1965-09-03 UTC)

SL-8 R/B Visibility forecast

Observer location: undefined°, undefined°

Span
Click to sort rows by Start time (UTC) header in descending order
Start Az.
Max El. time (UTC)
Max El. Az.
Max El.
End time (UTC)
End Az.
14 mins2025-05-09 06:32:36.118Z303.362° NW2025-05-09 06:39:36.118Z357.042° N25.47°2025-05-09 06:46:36.118Z52.015° ENE
15 mins2025-05-09 08:34:36.118Z320.963° NNW2025-05-09 08:41:36.118Z19.107° NNE32.709°2025-05-09 08:49:36.118Z90.86° ESE
16 mins2025-05-09 10:34:36.118Z312.652° NW2025-05-09 10:42:36.118Z227.986° WSW44.588°2025-05-09 10:50:36.118Z143.47° SSE
10 mins2025-05-09 12:36:36.118Z280.18° WNW2025-05-09 12:40:36.118Z250.415° W18.35°2025-05-09 12:46:36.118Z205.991° SW
15 mins2025-05-10 01:22:36.118Z181.355° SSW2025-05-10 01:29:36.118Z120.487° SE31.941°2025-05-10 01:37:36.118Z57.724° ENE
16 mins2025-05-10 03:21:36.118Z241.015° WSW2025-05-10 03:28:36.118Z308.854° NW42.431°2025-05-10 03:37:36.118Z42.505° NE
|